Temperature
15 15 15 16 13 11 13 14 15 16 16 18 18 18 16 16 17 17 16 16 16 16 16 16 16 16 16 16 16 16 16 16 16 16 16 16 16 16 16 16 16 16 16 15 15 15 15 15 15
14 15 15 15 11 12 13 14 15 16 17 18 18 17 16 15 16 15 15 15 16 16 16 16 16 16 16 16 16 16 16 16 16 16 16 16 16 16 16 16 16 16 16 16 16 15 15 15 15
14 15 15 11 11 12 14 14 14 15 17 17 17 16 16 15 15 15 15 15 15 16 15 15 16 16 16 16 16 16 16 16 16 16 16 16 16 16 16 16 16 16 16 16 15 15 15 15 15
14 14 14 11 12 12 14 14 14 15 16 17 16 15 15 15 15 15 15 15 15 15 15 15 15 15 15 15 15 15 15 15 16 16 16 16 16 16 16 16 16 15 15 15 15 15 15 15 15
14 13 11 11 12 12 13 14 14 14 15 16 15 14 14 14 15 15 15 15 15 15 15 15 15 15 15 15 15 15 15 15 15 15 15 15 15 15 15 15 15 15 15 15 15 15 15 15 15
13 11 10 11 12 13 13 14 14 14 14 15 14 13 13 14 14 14 14 15 15 15 14 14 14 15 15 15 15 15 15 15 15 15 15 15 15 15 15 15 15 15 15 15 15 15 15 15 15
12 10 11 11 12 13 14 15 14 13 13 14 15 13 13 13 14 14 14 14 14 14 14 14 14 14 14 14 15 15 15 15 15 15 15 15 15 15 15 15 15 15 15 15 15 15 15 15 14
13 10 11 11 12 13 14 14 14 14 14 15 15 13 12 13 13 13 13 13 13 13 14 14 14 14 14 14 14 14 14 15 15 15 15 15 15 15 15 15 15 15 15 15 15 15 15 14 14
13 9 10 11 12 12 13 13 14 14 14 14 14 14 14 13 13 13 13 13 13 13 13 13 13 14 14 14 14 14 14 14 14 14 14 14 14 14 14 14 15 15 15 15 15 14 14 14 14
12 9 11 12 12 12 13 13 13 13 13 13 13 14 14 13 13 13 13 13 13 13 13 13 13 13 13 13 14 14 14 14 14 14 14 14 14 14 14 14 14 14 14 14 14 14 14 14 14
11 10 11 12 13 13 12 13 13 13 12 12 13 13 13 13 13 13 12 13 13 12 13 13 13 13 13 13 13 13 14 14 14 14 14 14 14 14 14 14 14 14 14 14 14 14 14 14 14
10 11 12 12 13 13 12 12 12 12 13 13 13 13 13 13 13 12 12 12 12 12 12 13 13 13 13 13 13 13 13 13 13 13 13 13 13 13 13 13 14 14 14 14 14 14 14 14 14
10 11 12 12 12 12 12 12 12 12 13 13 13 13 13 13 13 12 12 12 12 12 12 12 12 12 13 13 13 13 13 13 13 13 13 13 13 13 13 13 13 13 13 13 13 13 13 13 13
11 11 11 12 12 12 12 12 12 12 13 13 13 13 12 13 12 12 12 12 12 12 12 12 12 12 12 12 12 12 13 13 13 13 13 13 13 13 13 13 13 13 13 13 13 13 13 13 13
11 10 10 11 11 12 12 11 11 12 12 12 12 12 12 12 12 12 12 12 12 12 12 11 11 11 12 12 12 12 12 12 12 12 12 12 12 12 12 12 13 13 13 13 13 13 13 13 13
10 10 9 11 11 11 11 10 11 12 12 12 12 12 12 12 12 12 12 12 11 11 11 11 11 11 11 12 11 12 12 12 12 12 12 12 12 12 12 12 12 12 12 12 12 12 12 12 12
9 9 9 10 11 11 10 10 10 12 11 11 11 12 12 12 12 12 12 11 11 11 11 11 11 11 11 11 11 11 11 11 11 11 11 11 12 12 12 12 12 12 12 12 12 12 12 12 12
8 8 9 9 10 10 10 9 10 11 11 11 11 11 11 11 11 11 11 11 11 11 11 11 11 11 11 11 11 11 11 11 11 11 11 11 11 11 12 11 11 11 11 12 12 12 12 11 11
9 9 9 9 10 10 9 9 10 10 10 10 10 10 11 11 11 11 11 11 11 11 11 11 10 10 10 11 11 11 11 11 10 10 10 11 11 11 11 11 11 11 11 11 11 11 11 11 11
9 9 9 9 10 10 9 9 9 9 9 10 10 10 10 11 11 11 11 11 11 11 10 10 10 10 10 10 10 10 10 10 10 10 10 10 10 10 10 11 11 11 11 11 11 10 10 10 10
9 8 8 9 9 9 9 9 9 9 9 10 10 10 10 10 11 10 10 10 10 10 10 10 10 10 10 10 10 10 10 10 10 10 10 10 10 10 10 10 10 10 10 10 10 10 10 10 10
8 9 9 9 8 7 8 8 9 9 8 8 9 10 10 10 10 10 10 10 10 10 10 10 10 10 10 10 10 10 10 10 10 10 9 9 9 10 10 10 10 10 10 10 10 9 9 9 9
8 9 8 8 7 7 7 7 8 8 8 8 8 10 10 10 10 10 10 10 10 10 10 10 9 9 9 9 9 9 9 10 10 9 9 9 9 9 9 9 9 9 9 9 9 9 9 9 9
8 8 7 6 6 7 8 7 8 7 8 8 8 9 10 10 10 10 10 10 10 10 10 9 9 9 9 9 9 9 9 9 9 9 9 9 9 9 9 9 9 8 8 8 8 8 8 8 8
8 7 6 7 6 7 8 7 8 9 8 8 8 9 10 10 10 10 10 10 10 9 9 9 9 9 9 9 9 9 9 9 9 9 9 9 8 8 8 8 8 8 8 8 8 8 7 7 7
7 7 7 8 7 7 7 7 8 9 9 9 9 10 10 10 9 10 10 10 9 9 9 9 9 9 9 9 8 8 8 9 9 8 8 8 8 8 8 8 8 7 7 7 7 7 7 7 7
7 6 7 6 6 6 7 7 8 9 8 8 8 9 9 9 9 9 9 9 9 9 9 9 8 8 8 8 8 8 8 8 8 8 8 8 8 7 7 7 7 7 7 7 7 7 6 6 6
7 6 5 6 7 7 8 7 8 9 8 7 7 8 9 9 9 9 9 9 9 9 8 8 8 8 8 8 8 8 8 8 7 7 7 7 7 7 7 7 7 7 6 6 6 6 6 6 6
7 7 6 5 5 6 7 8 8 8 8 7 7 8 9 9 9 9 9 9 9 8 8 8 8 8 8 8 8 7 7 7 7 7 7 7 7 6 6 6 6 6 6 6 6 5 5 5 5
7 7 6 6 6 5 5 7 8 7 7 8 8 9 9 9 9 9 8 8 8 8 8 8 8 7 7 7 7 7 7 7 7 7 6 6 6 6 6 6 6 6 5 5 5 5 5 5 5
Wind_Speed
11 10 2 4 5 4 2 4 2 1 1 2 1 2 4 3 2 3 2 6 8 8 10 12 13 13 13 13 12 11 11 12 12 12 11 11 11 11 11 10 10 10 10 9 9 9 9 9 9
7 4 5 5 4 2 4 4 2 3 3 2 2 2 3 1 2 4 3 5 9 9 10 11 13 14 14 13 12 11 11 11 11 12 12 12 11 11 10 10 9 9 9 9 9 9 8 8 7
5 2 4 4 4 5 4 3 3 4 3 1 2 3 2 2 3 3 4 8 9 8 10 12 13 14 14 14 12 11 11 11 11 11 11 11 11 10 10 9 9 9 9 9 9 8 8 7 6
3 4 4 3 4 4 4 4 2 2 4 3 2 2 2 2 1 3 7 9 9 8 10 12 13 13 13 13 13 12 11 10 10 10 10 10 10 10 9 9 8 8 8 8 8 7 6 6 5
4 4 3 1 4 4 4 4 2 0 2 2 2 1 1 4 2 7 8 9 11 8 9 12 13 13 12 13 12 11 11 10 10 10 9 9 9 9 9 9 8 8 7 7 7 6 5 5 3
3 4 3 3 4 3 3 3 1 1 2 2 2 1 1 1 4 6 7 8 9 9 9 11 12 12 12 11 11 10 10 10 9 9 9 9 9 8 8 9 8 7 7 7 6 5 5 4 3
4 4 4 4 3 3 3 2 1 1 2 3 3 3 1 1 2 5 7 7 8 9 8 8 10 10 11 11 11 10 10 9 9 8 9 8 7 8 8 8 7 7 6 6 5 4 4 3 2
4 4 2 2 3 4 3 2 1 1 3 1 3 4 4 4 2 5 7 7 7 7 6 6 8 8 8 9 10 10 9 9 8 8 9 8 7 7 7 6 7 6 5 5 4 4 3 2 2
3 3 3 4 4 4 2 2 3 1 1 1 1 3 4 5 5 7 6 6 5 6 4 5 6 6 7 7 8 9 9 8 8 8 9 8 7 6 5 5 6 5 4 4 3 3 2 2 1
4 3 5 3 3 3 2 2 2 2 1 1 2 2 3 6 7 8 8 6 6 5 4 4 5 5 5 6 6 6 7 7 7 7 7 7 7 6 5 5 4 4 4 3 3 2 2 2 2
3 5 4 3 3 2 2 2 1 1 2 3 3 3 4 6 6 7 7 6 6 5 5 4 5 5 4 4 5 5 5 6 6 7 7 7 7 6 6 5 4 4 4 4 3 3 2 2 2
3 4 4 3 3 2 2 2 2 3 6 4 4 6 6 7 7 7 7 6 5 5 5 4 5 5 4 5 4 5 5 4 5 5 6 6 5 4 4 4 4 4 3 3 3 3 2 2 2
3 3 3 4 4 3 2 3 3 5 5 2 2 5 6 6 6 5 6 6 6 5 5 5 4 4 4 5 4 4 4 4 5 5 6 6 4 3 3 3 3 4 3 3 2 2 2 2 2
4 3 4 4 4 3 3 5 2 6 3 2 5 6 6 7 5 5 5 5 6 5 5 5 5 4 5 4 3 4 5 5 5 5 6 7 6 4 3 2 3 3 3 2 2 2 1 1 2
1 2 4 3 3 2 1 4 5 6 2 3 4 5 6 6 5 6 7 6 6 6 5 6 5 5 5 5 4 4 5 5 5 4 6 6 6 5 4 2 2 2 2 3 3 3 2 2 2
1 1 3 4 1 1 2 6 7 4 3 4 4 5 5 4 5 5 6 5 6 7 6 6 5 5 5 5 4 4 5 5 4 4 5 6 6 5 5 3 1 2 3 3 2 2 2 2 2
2 0 3 4 2 0 2 6 7 3 4 5 4 4 4 3 3 4 5 6 7 8 7 6 6 6 5 5 4 4 4 4 4 4 4 5 5 5 5 3 2 3 3 2 2 2 1 1 2
3 2 3 5 3 1 3 8 8 4 4 5 4 3 4 5 5 5 5 6 7 7 7 7 6 6 5 5 4 3 3 3 4 4 3 4 4 4 5 3 3 3 2 2 2 2 2 1 1
4 3 5 6 3 2 6 9 9 6 4 4 4 4 5 5 4 4 5 6 6 6 6 6 6 5 5 4 3 3 2 1 2 2 3 4 4 4 4 3 2 2 2 2 2 2 2 2 1
2 3 4 5 3 2 5 9 8 5 4 6 7 7 6 5 3 4 5 5 6 7 6 6 6 6 5 4 3 2 3 2 1 1 2 3 4 4 3 3 2 2 2 2 2 2 1 1 2
4 5 4 4 4 2 3 7 5 4 3 3 5 6 7 8 7 6 6 5 6 6 7 7 6 6 5 5 4 4 3 2 1 1 1 1 3 3 3 3 2 2 2 1 2 2 2 1 2
4 4 4 2 1 3 0 4 7 4 4 5 6 6 7 6 6 6 6 6 6 6 6 6 6 6 5 6 6 6 4 3 3 2 1 1 2 3 3 3 2 2 1 1 1 1 1 2 0
5 2 1 1 2 3 2 3 8 3 6 8 8 8 7 7 7 7 6 6 6 5 6 6 6 5 5 5 6 5 4 3 2 1 2 2 1 2 2 2 2 1 1 1 1 1 1 1 1
2 3 4 3 3 3 4 4 7 5 8 7 8 8 8 8 7 6 5 5 4 4 5 6 6 5 5 6 6 7 6 4 3 2 3 2 1 1 1 1 1 1 0 0 0 1 1 1 1
3 4 3 4 2 6 3 4 8 7 7 8 9 9 8 8 8 7 7 6 5 5 5 5 7 6 5 6 6 6 6 6 5 4 4 3 2 1 2 1 1 1 1 1 1 1 1 1 1
4 6 6 4 5 5 3 6 7 6 3 3 5 7 7 7 7 7 8 8 7 6 6 6 7 6 6 6 6 5 5 4 4 5 4 4 3 3 2 2 2 2 2 1 1 1 1 1 1
4 4 5 4 1 3 5 6 7 1 2 2 4 5 6 7 7 7 7 7 6 6 6 6 6 5 5 6 6 5 5 5 5 4 4 3 3 2 3 2 2 2 2 2 1 1 2 1 2
4 5 4 4 3 4 5 5 5 4 3 2 4 5 5 5 6 6 6 6 6 6 5 5 5 5 4 5 5 5 5 5 5 4 4 4 3 3 3 3 2 2 2 2 2 2 2 2 2
4 3 4 4 4 4 4 7 5 6 6 6 7 6 6 7 7 6 5 5 5 4 4 4 4 4 3 3 4 4 4 4 4 4 4 4 3 3 3 3 3 3 3 2 2 3 3 3 3
5 6 6 4 4 4 3 7 5 3 3 5 6 5 5 5 5 4 4 4 4 4 4 5 4 4 4 4 4 4 3 3 4 4 4 4 4 4 4 3 3 3 3 3 3 4 4 4 4
Wind_Direction
334 338 47 55 60 58 237 255 239 293 314 287 310 108 120 135 170 179 144 132 129 140 144 142 135 131 125 121 119 115 120 121 121 120 120 118 117 116 115 115 114 116 113 109 106 102 99 95 92
338 356 50 63 101 158 255 253 235 256 239 301 15 57 83 83 99 111 121 135 131 133 138 140 135 134 129 124 121 119 116 119 120 120 120 119 118 118 117 116 115 115 113 111 107 104 101 98 93
339 40 79 84 139 186 218 241 232 277 290 336 24 39 98 133 123 147 156 142 128 126 134 138 135 135 131 126 124 122 118 116 120 121 120 121 121 119 117 115 114 115 116 113 109 107 104 99 92
45 47 62 93 205 226 216 248 248 330 336 6 68 37 16 352 190 151 141 134 127 125 128 136 136 133 130 127 125 122 120 117 120 120 121 121 121 122 119 114 116 118 118 116 115 113 110 104 96
64 84 85 163 236 242 236 247 238 358 306 334 59 105 348 337 86 120 132 129 129 127 124 129 132 131 130 127 124 122 118 117 118 121 120 123 121 120 119 117 114 120 124 123 120 122 121 112 99
60 78 116 208 236 257 261 252 249 281 267 306 69 121 224 333 91 119 126 124 127 126 120 126 127 127 126 125 124 126 124 121 117 122 121 120 121 120 119 119 114 114 119 123 123 123 124 117 101
113 116 172 198 229 262 266 273 181 233 249 238 159 135 205 285 105 119 119 117 118 118 117 116 120 124 125 125 126 126 126 122 118 122 119 113 115 120 123 121 118 113 117 121 120 121 126 118 104
131 116 175 218 214 244 272 326 252 198 239 257 122 152 197 218 149 112 112 112 115 115 118 115 115 119 123 127 130 126 124 121 116 117 115 109 107 117 122 122 118 112 105 115 117 115 114 112 94
100 91 207 218 210 237 284 345 326 311 140 27 48 199 211 161 132 115 111 108 112 114 117 122 121 124 128 130 130 125 121 118 115 112 110 107 100 105 115 118 120 116 105 100 112 107 95 89 64
96 162 217 223 218 237 288 296 282 354 4 10 11 5 111 138 139 136 136 140 139 141 141 137 134 132 127 126 120 119 117 113 112 109 108 104 100 95 101 108 111 115 106 88 90 91 72 58 23
152 194 227 247 246 238 281 292 279 170 257 226 217 205 163 151 148 149 149 154 155 154 146 148 142 131 121 116 120 114 111 107 108 106 107 104 95 89 86 83 78 80 88 71 60 57 43 38 17
182 235 231 242 250 244 244 253 275 230 234 237 203 183 173 170 171 170 164 161 155 151 149 141 138 129 121 119 118 117 108 104 104 107 112 108 96 84 81 75 72 65 63 64 52 34 27 26 13
213 243 253 249 259 242 249 253 254 253 257 243 171 168 183 183 182 175 168 162 152 155 151 146 136 135 127 116 117 117 111 106 104 107 107 110 105 97 82 73 71 61 52 47 41 35 26 10 1
217 247 275 268 263 256 245 266 243 256 245 188 167 179 194 187 180 170 166 167 164 162 151 144 139 133 129 121 119 126 116 111 99 98 106 107 107 104 98 81 67 55 47 43 47 47 43 19 22
224 299 308 267 241 239 191 287 247 251 211 187 187 199 198 191 181 183 181 172 168 162 149 143 141 133 127 120 118 117 113 108 97 94 104 104 106 105 97 86 72 50 57 63 52 44 54 47 36
30 37 310 292 233 231 140 263 270 255 187 204 211 207 187 194 190 192 180 170 162 158 149 142 139 135 125 120 114 109 108 106 100 94 99 96 96 103 95 82 60 58 61 55 66 51 53 33 18
29 257 264 295 270 224 182 255 275 264 194 207 214 207 186 189 187 194 179 171 164 161 152 144 137 136 127 120 114 106 100 98 100 92 91 93 90 92 91 81 58 76 71 56 62 61 68 37 4
228 236 266 269 275 296 252 262 279 280 218 215 212 201 187 191 203 192 177 169 162 157 151 147 141 138 125 109 94 81 74 72 85 88 85 92 89 87 89 75 57 68 86 67 64 71 48 59 4
197 212 255 265 273 263 253 265 273 271 241 225 215 200 193 204 203 173 166 161 154 151 150 148 146 147 135 124 123 117 110 89 70 73 87 95 92 86 85 77 58 60 88 88 76 89 63 40 31
218 239 264 287 302 253 267 276 274 262 228 209 202 200 198 194 185 177 169 163 163 163 163 155 156 157 155 149 148 141 135 124 123 86 69 93 94 88 87 81 67 62 76 73 69 75 74 32 41
237 214 230 257 321 320 306 303 274 265 232 211 202 198 196 193 192 186 179 175 168 171 172 168 166 166 165 151 133 116 91 74 72 59 22 83 106 97 88 84 71 58 78 84 79 84 94 91 10
248 232 215 228 0 287 250 281 279 246 246 229 218 206 201 198 189 179 177 175 179 184 175 166 168 169 171 159 155 154 155 166 189 182 185 143 112 105 96 92 79 65 74 83 78 83 114 130 132
221 248 214 202 181 299 252 218 282 249 240 239 224 210 202 195 186 179 178 179 177 173 169 166 165 173 174 169 164 159 163 169 162 161 157 144 105 101 110 110 96 77 74 89 89 91 103 129 166
170 41 38 49 77 283 232 193 274 231 224 228 220 209 198 190 185 178 173 160 158 156 160 162 165 176 175 170 169 172 176 174 172 181 168 161 146 127 121 126 118 130 141 167 179 166 152 173 180
98 89 32 359 344 254 248 208 254 258 237 215 207 202 194 183 177 177 172 172 171 168 169 168 169 179 181 176 182 184 183 180 187 190 181 173 174 193 213 167 166 199 212 195 171 185 204 196 195
185 152 162 203 233 276 291 235 255 283 280 225 192 180 179 180 182 184 183 181 181 178 175 171 176 184 184 184 190 191 187 184 187 186 181 186 194 203 196 186 193 208 212 206 180 210 239 222 219
156 188 174 144 191 263 268 277 299 328 25 77 138 152 176 184 189 191 186 181 181 181 183 179 176 180 188 191 186 188 193 187 189 188 185 191 200 201 188 187 191 203 206 203 195 225 245 238 237
163 152 117 143 178 252 281 268 249 236 227 193 172 181 190 182 187 191 190 186 186 187 185 176 176 183 187 190 192 191 190 188 187 181 192 196 199 191 194 203 205 217 215 202 207 231 241 233 248
162 165 159 157 178 184 254 270 230 214 206 200 204 197 192 191 190 191 191 187 182 177 172 174 182 179 179 187 185 182 186 184 182 189 200 198 198 196 201 205 208 219 227 225 224 236 237 240 255
188 186 160 171 223 198 208 267 276 223 211 194 195 193 191 190 192 188 183 174 174 180 179 180 183 184 189 188 182 186 184 179 187 201 208 200 201 203 206 206 213 225 228 225 227 239 244 241 248
Height
1513 1513 1514 1516 1519 1529 1529 1522 1515 1512 1510 1508 1507 1507 1507 1509 1512 1516 1512 1511 1513 1516 1518 1520 1521 1523 1524 1525 1526 1527 1528 1529 1530 1531 1532 1533 1534 1535 1535 1536 1536 1537 1538 1538 1539 1539 1540 1540 1541
1512 1513 1515 1516 1525 1534 1529 1519 1514 1511 1509 1508 1507 1507 1506 1508 1509 1509 1509 1511 1513 1515 1517 1519 1521 1522 1523 1525 1526 1526 1527 1529 1530 1531 1532 1533 1534 1535 1535 1536 1536 1537 1538 1538 1539 1539 1540 1541 1541
1512 1513 1515 1518 1526 1529 1522 1515 1512 1509 1508 1507 1507 1507 1507 1508 1508 1508 1509 1510 1513 1515 1517 1518 1520 1521 1523 1524 1525 1526 1527 1528 1529 1530 1532 1533 1533 1534 1535 1536 1536 1537 1538 1538 1539 1539 1540 1541 1541
1512 1514 1516 1522 1523 1520 1515 1512 1510 1509 1507 1506 1507 1508 1508 1509 1508 1508 1508 1510 1512 1514 1516 1518 1519 1520 1522 1523 1524 1525 1526 1528 1529 1530 1531 1532 1533 1534 1535 1535 1536 1537 1537 1538 1539 1539 1540 1540 1541
1512 1514 1519 1524 1521 1516 1512 1510 1509 1508 1508 1507 1507 1508 1507 1508 1508 1508 1508 1509 1511 1513 1515 1517 1518 1519 1521 1522 1523 1525 1526 1527 1528 1529 1531 1532 1533 1534 1534 1535 1536 1537 1537 1538 1538 1539 1539 1540 1541
1512 1514 1524 1525 1519 1513 1510 1509 1508 1508 1507 1507 1507 1508 1507 1508 1507 1508 1509 1510 1511 1512 1514 1516 1518 1519 1520 1521 1522 1524 1525 1526 1527 1529 1530 1531 1532 1533 1534 1535 1535 1536 1537 1537 1538 1538 1539 1539 1540
1512 1516 1520 1520 1517 1514 1510 1508 1507 1507 1506 1506 1506 1507 1507 1508 1507 1508 1509 1510 1511 1511 1514 1516 1517 1519 1520 1521 1523 1524 1525 1526 1527 1528 1529 1530 1531 1532 1533 1534 1535 1535 1536 1536 1537 1538 1538 1539 1539
1511 1515 1517 1518 1515 1513 1508 1507 1506 1506 1505 1505 1505 1505 1505 1506 1507 1508 1508 1509 1510 1511 1513 1515 1516 1518 1519 1520 1522 1523 1524 1525 1526 1527 1528 1529 1530 1531 1532 1533 1534 1534 1535 1535 1536 1537 1537 1538 1538
1511 1518 1519 1515 1513 1510 1507 1506 1505 1504 1504 1503 1503 1504 1503 1504 1505 1506 1507 1508 1509 1510 1512 1514 1515 1517 1518 1519 1521 1522 1523 1524 1525 1526 1527 1528 1529 1530 1531 1532 1533 1534 1534 1534 1535 1536 1536 1537 1537
1510 1518 1514 1509 1508 1507 1505 1505 1504 1503 1503 1502 1502 1502 1502 1503 1503 1504 1505 1506 1507 1509 1511 1513 1515 1516 1517 1518 1520 1521 1522 1523 1524 1525 1526 1527 1528 1529 1530 1531 1532 1532 1533 1533 1534 1535 1535 1536 1536
1509 1512 1509 1507 1506 1505 1504 1504 1503 1503 1502 1501 1500 1500 1501 1502 1503 1502 1504 1505 1506 1508 1510 1512 1514 1515 1516 1517 1519 1520 1521 1522 1523 1524 1525 1526 1527 1528 1529 1530 1530 1531 1532 1532 1533 1534 1534 1534 1535
1509 1507 1506 1505 1504 1504 1503 1502 1502 1501 1500 1499 1499 1499 1499 1500 1501 1501 1502 1504 1506 1507 1508 1510 1512 1514 1515 1516 1518 1519 1520 1521 1522 1523 1524 1525 1526 1527 1528 1528 1529 1530 1530 1531 1532 1532 1533 1533 1534
1507 1506 1505 1504 1503 1502 1501 1501 1501 1499 1498 1498 1497 1498 1497 1498 1500 1501 1502 1503 1504 1505 1507 1508 1510 1512 1513 1515 1516 1518 1519 1520 1521 1522 1523 1524 1525 1526 1526 1527 1528 1528 1529 1530 1530 1531 1532 1532 1533
1505 1505 1503 1502 1501 1500 1500 1499 1499 1496 1496 1496 1496 1496 1497 1497 1498 1499 1501 1502 1503 1504 1506 1507 1509 1510 1512 1514 1515 1517 1518 1519 1520 1521 1522 1523 1524 1524 1525 1525 1526 1527 1528 1528 1529 1529 1530 1531 1531
1504 1505 1503 1501 1499 1499 1499 1499 1495 1493 1494 1494 1494 1495 1495 1496 1497 1498 1499 1501 1502 1504 1505 1506 1507 1509 1510 1512 1514 1515 1516 1517 1518 1519 1521 1522 1522 1523 1524 1524 1525 1526 1526 1527 1527 1528 1528 1529 1529
1504 1507 1508 1501 1498 1498 1502 1501 1493 1491 1492 1492 1492 1492 1493 1494 1495 1497 1498 1499 1501 1502 1503 1505 1506 1508 1509 1511 1512 1514 1515 1516 1517 1518 1519 1520 1521 1522 1523 1523 1524 1524 1525 1525 1526 1526 1526 1526 1527
1509 1512 1508 1503 1498 1498 1499 1498 1491 1490 1490 1490 1490 1490 1491 1493 1494 1495 1496 1498 1499 1501 1502 1503 1505 1506 1508 1510 1511 1513 1514 1515 1516 1517 1518 1519 1520 1521 1521 1522 1522 1523 1523 1524 1524 1524 1524 1524 1524
1511 1511 1507 1504 1499 1498 1498 1495 1490 1489 1488 1488 1488 1489 1489 1490 1491 1493 1494 1496 1498 1499 1501 1502 1504 1505 1507 1508 1510 1512 1513 1514 1515 1516 1517 1518 1519 1519 1520 1520 1521 1521 1521 1522 1522 1522 1522 1522 1522
1505 1507 1506 1502 1497 1498 1497 1494 1489 1487 1487 1487 1487 1487 1487 1488 1489 1491 1492 1494 1495 1497 1499 1501 1502 1504 1505 1507 1509 1510 1511 1512 1513 1514 1515 1516 1517 1518 1518 1519 1519 1519 1520 1520 1520 1520 1520 1520 1520
1504 1506 1506 1501 1497 1498 1496 1493 1487 1485 1485 1484 1485 1485 1486 1487 1488 1489 1491 1492 1494 1495 1497 1499 1501 1503 1504 1506 1508 1509 1510 1511 1512 1513 1514 1514 1515 1516 1517 1517 1518 1518 1518 1518 1518 1518 1518 1518 1518
1503 1505 1504 1503 1500 1497 1497 1494 1487 1484 1482 1482 1483 1483 1484 1485 1485 1487 1489 1490 1492 1493 1495 1497 1500 1502 1504 1505 1507 1507 1508 1510 1511 1511 1512 1513 1514 1515 1515 1516 1516 1516 1516 1516 1516 1516 1516 1516 1516
1502 1499 1499 1501 1504 1506 1502 1504 1488 1484 1482 1480 1480 1480 1481 1482 1483 1485 1486 1488 1490 1492 1494 1496 1498 1500 1502 1504 1505 1505 1506 1508 1509 1510 1510 1511 1512 1513 1513 1514 1514 1514 1514 1514 1514 1514 1514 1514 1514
1498 1496 1498 1500 1503 1506 1503 1505 1491 1483 1482 1478 1476 1477 1478 1480 1481 1482 1484 1486 1489 1491 1493 1495 1497 1499 1500 1502 1503 1504 1505 1507 1508 1508 1508 1509 1510 1511 1511 1512 1512 1512 1512 1512 1512 1512 1512 1512 1512
1495 1497 1500 1504 1507 1507 1499 1502 1491 1483 1476 1473 1472 1473 1475 1478 1480 1481 1483 1485 1487 1489 1491 1493 1495 1497 1498 1500 1501 1502 1504 1505 1505 1506 1506 1507 1508 1509 1509 1510 1510 1510 1510 1510 1510 1510 1510 1510 1509
1496 1503 1512 1511 1514 1504 1496 1496 1486 1472 1469 1468 1468 1470 1472 1475 1478 1480 1481 1483 1485 1487 1489 1490 1492 1494 1495 1497 1499 1500 1501 1502 1503 1503 1504 1505 1506 1506 1507 1507 1508 1508 1508 1508 1508 1507 1507 1507 1506
1496 1499 1508 1508 1509 1504 1496 1493 1479 1469 1466 1465 1466 1468 1471 1473 1476 1477 1479 1481 1483 1485 1486 1488 1490 1492 1493 1494 1496 1497 1499 1499 1500 1501 1502 1502 1503 1504 1504 1505 1505 1505 1505 1505 1505 1504 1504 1503 1503
1494 1498 1497 1506 1507 1506 1497 1488 1476 1468 1467 1466 1467 1468 1470 1472 1474 1476 1478 1480 1481 1483 1484 1486 1487 1489 1490 1492 1493 1494 1495 1497 1497 1498 1499 1500 1501 1501 1502 1502 1502 1502 1502 1502 1501 1501 1500 1500 1500
1489 1492 1501 1504 1504 1500 1492 1487 1480 1470 1469 1468 1468 1468 1469 1471 1473 1475 1476 1478 1480 1482 1483 1485 1486 1487 1488 1489 1490 1492 1493 1494 1495 1495 1496 1497 1498 1498 1498 1498 1498 1498 1498 1498 1498 1497 1497 1496 1496
1490 1492 1494 1500 1501 1500 1496 1486 1469 1467 1466 1466 1466 1467 1468 1470 1472 1473 1474 1476 1478 1480 1481 1482 1483 1484 1485 1486 1487 1489 1489 1490 1491 1492 1493 1493 1494 1494 1495 1495 1495 1494 1494 1494 1493 1493 1493 1492 1492
1484 1485 1490 1496 1497 1499 1499 1487 1463 1464 1463 1463 1465 1466 1468 1469 1471 1472 1473 1475 1476 1477 1478 1479 1481 1482 1482 1484 1485 1486 1486 1487 1488 1489 1489 1490 1490 1491 1491 1491 1490 1490 1490 1489 1489 1489 1488 1488 1487